Tracking 28926 objects as of 23-May-2024
HD Live streaming from Space Station
objects crossing your sky now

TJS-7

Track TJS-7 now!
TJS-7 is classified as:


NORAD ID: 49115
Int'l Code: 2021-077A
Perigee: 35,789.8 km
Apogee: 35,798.2 km
Inclination: 0.2 °
Period: 1,436.1 minutes
Semi major axis: 42164 km
RCS: Unknown
Launch date: August 24, 2021
Source: People's Republic of China (PRC)
Launch site: Xichang Space Center, China (XSC)
Your satellite tracking list
Your tracking list is empty




NASA's NSSDC Master Catalog

Two Line Element Set (TLE):
1 49115U 21077A   24143.58586894 -.00000102  00000-0  00000-0 0  9998
2 49115   0.2456  84.6879 0001003 357.9630 269.5137  1.00270885  1991
Source of the keplerian elements: AFSPC